Phoenix Deer Valley, AZ

6:52 AM MST on October 21, 2019 (GMT -0700)
Phoenix-Deer Valley Municipal

Weather History for KDVT - August, 2019

Change the Weather History Date:

Thursday, August 22, 2019

  Actual Average Record
Temperature  
Mean Temperature 96 °F -  
Max Temperature 107 °F 99 °F 109 °F (1999)
Min Temperature 84 °F 79 °F 69 °F (2014)
Cooling Degree Days 30    
Growing Degree Days 46 (Base 50)    
Moisture  
Dew Point 46 °F    
Average Humidity 19    
Maximum Humidity 23    
Minimum Humidity 12    
Precipitation  
Precipitation 0.00 in - - ()
Sea Level Pressure  
Sea Level Pressure 29.66 in    
Wind  
Wind Speed 6 mph ()    
Max Wind Speed 14 mph    
Max Gust Speed 24 mph    
Visibility 10.0 miles    
Events      
Averages and records for this station are not official NWS values.
T = Trace of Precipitation, MM = Missing Value Source: Averaged Metar Reports

Daily Weather History Graph

Daily Weather History Graph

Search for Another Location

Airport or City:

Astronomy

Aug. 22, 2019 Rise Set
Actual Time 5:55 AM MST 7:06 PM MST
Civil Twilight 5:29 AM MST 7:32 PM MST
Nautical Twilight 4:58 AM MST 8:03 PM MST
Astronomical Twilight 4:26 AM MST 8:35 PM MST
Moon 11:18 PM MST (8/22) 12:15 PM MST (8/22)
Length of Visible Light 14h 03m
Length of Day
13h 11m
Waning Gibbous, 58% of the Moon is Illuminated
Aug 22
Waning Gibbous
Aug 23
Last Quarter
Aug 30
New
Sep 5
First Quarter
Sep 13
Full

Hourly Weather History & Observations

Time (MST) Temp. Heat Index Dew Point Humidity Pressure Visibility Wind Dir Wind Speed Gust Speed Precip Events Conditions
12:53 AM 88.0 °F - 30.0 °F 12% 29.63 in 10.0 mi Calm Calm - N/A   Clear
1:53 AM 84.9 °F - 30.0 °F 14% 29.63 in 10.0 mi Calm Calm - N/A   Clear
2:53 AM 84.0 °F - 30.0 °F 14% 29.64 in 10.0 mi NNE 3.5 mph - N/A   Clear
3:53 AM 84.0 °F - 33.1 °F 16% 29.66 in 10.0 mi East 3.5 mph - N/A   Clear
4:53 AM 84.9 °F - 34.0 °F 16% 29.68 in 10.0 mi East 9.2 mph - N/A   Clear
5:53 AM 86.0 °F - 37.0 °F 18% 29.70 in 10.0 mi SE 12.7 mph - N/A   Clear
6:53 AM 86.0 °F - 42.1 °F 21% 29.72 in 10.0 mi ENE 5.8 mph - N/A   Clear
7:53 AM 91.0 °F - 45.0 °F 20% 29.73 in 10.0 mi ESE 8.1 mph - N/A   Clear
8:53 AM 93.9 °F - 46.9 °F 20% 29.73 in 10.0 mi East 6.9 mph - N/A   Clear
9:53 AM 96.1 °F - 48.9 °F 20% 29.73 in 10.0 mi SE 10.4 mph - N/A   Clear
10:53 AM 97.0 °F - 51.1 °F 21% 29.73 in 10.0 mi SE 5.8 mph - N/A   Clear
11:53 AM 100.0 °F 97.9 °F 54.0 °F 21% 29.71 in 10.0 mi Variable 4.6 mph - N/A   Clear
12:53 PM 102.0 °F 100.1 °F 54.0 °F 20% 29.69 in 10.0 mi Variable 6.9 mph - N/A   Clear
1:07 PM 102.0 °F 100.1 °F 54.0 °F 20% 29.77 in 10.0 mi Variable 6.9 mph - N/A   Clear
1:53 PM 102.0 °F 100.1 °F 54.0 °F 20% 29.67 in 10.0 mi Variable 3.5 mph - N/A   Clear
2:53 PM 107.1 °F - 51.1 °F 16% 29.63 in 10.0 mi SSW 11.5 mph 24.2 mph N/A   Clear
3:53 PM 105.1 °F - 51.1 °F 16% 29.61 in 10.0 mi WSW 10.4 mph - N/A   Clear
4:53 PM 105.1 °F - 50.0 °F 16% 29.60 in 10.0 mi West 9.2 mph - N/A   Clear
5:53 PM 105.1 °F 103.3 °F 54.0 °F 18% 29.58 in 10.0 mi West 11.5 mph 16.1 mph N/A   Clear
6:53 PM 102.9 °F 100.9 °F 53.1 °F 19% 29.58 in 10.0 mi WSW 9.2 mph - N/A   Clear
7:53 PM 100.9 °F 98.7 °F 53.1 °F 20% 29.59 in 10.0 mi SW 12.7 mph - N/A   Clear
8:53 PM 98.1 °F 96.1 °F 54.0 °F 23% 29.61 in 10.0 mi SW 13.8 mph 20.7 mph N/A   Clear
9:53 PM 96.1 °F 93.5 °F 53.1 °F 23% 29.64 in 10.0 mi SW 13.8 mph - N/A   Clear
10:53 PM 93.9 °F - 50.0 °F 22% 29.66 in 10.0 mi SW 12.7 mph - N/A   Clear
11:53 PM 91.9 °F - 48.9 °F 23% 29.70 in 10.0 mi SW 8.1 mph - N/A   Clear